| time (UTC) | temp F | wind direction | speed knots | gust knots | rain 1hr in | rain 24hr in | rain mn in | humidity % | barometer mb |
| 20260503200210 | 73 | 332 | 2.6 | 4.3 | 0.00 | 0.01 | 0.01 | 38 | 1004.8 |
| 20260503195707 | 71 | 332 | 1.7 | 1.7 | 0.00 | 0.01 | 0.01 | 40 | 1004.9 |
| 20260503195204 | 70 | 332 | 1.7 | 2.6 | 0.00 | 0.01 | 0.01 | 40 | 1005.0 |
| 20260503194701 | 71 | 332 | 3.5 | 5.2 | 0.00 | 0.01 | 0.01 | 40 | 1005.2 |
| 20260503194156 | 73 | 332 | 2.6 | 5.2 | 0.00 | 0.01 | 0.01 | 38 | 1005.2 |
| 20260503193653 | 74 | 332 | 0.0 | 0.0 | 0.00 | 0.01 | 0.01 | 36 | 1005.2 |
| 20260503193149 | 73 | 332 | 0.0 | 0.0 | 0.00 | 0.01 | 0.01 | 38 | 1005.3 |
| 20260503192645 | 73 | 332 | 0.9 | 1.7 | 0.00 | 0.01 | 0.01 | 39 | 1005.6 |
| 20260503192140 | 74 | 332 | 0.9 | 0.9 | 0.00 | 0.01 | 0.01 | 38 | 1005.7 |
| 20260503191637 | 73 | 332 | 1.7 | 2.6 | 0.00 | 0.01 | 0.01 | 38 | 1005.7 |
| 20260503191134 | 71 | 332 | 0.0 | 0.0 | 0.00 | 0.01 | 0.01 | 37 | 1006.0 |
| 20260503190631 | 72 | 332 | 0.0 | 0.9 | 0.00 | 0.01 | 0.01 | 38 | 1006.1 |
| 20260503190128 | 70 | 332 | 0.0 | 0.9 | 0.00 | 0.01 | 0.01 | 38 | 1006.0 |
| 20260503185625 | 71 | 332 | 4.3 | 5.2 | 0.00 | 0.01 | 0.01 | 37 | 1006.2 |
| 20260503185120 | 70 | 332 | 2.6 | 4.3 | 0.00 | 0.01 | 0.01 | 38 | 1006.2 |
| 20260503184615 | 70 | 331 | 0.0 | 0.0 | 0.00 | 0.01 | 0.01 | 37 | 1006.3 |
| 20260503184112 | 71 | 331 | 0.9 | 2.6 | 0.00 | 0.01 | 0.01 | 39 | 1006.6 |
| 20260503183609 | 71 | 332 | 2.6 | 4.3 | 0.00 | 0.01 | 0.01 | 38 | 1006.5 |
| 20260503183106 | 70 | 331 | 0.9 | 1.7 | 0.00 | 0.01 | 0.01 | 40 | 1006.7 |
| 20260503182604 | 69 | 332 | 4.3 | 5.2 | 0.00 | 0.01 | 0.01 | 39 | 1006.7 |
| 20260503182102 | 70 | 332 | 0.0 | 0.9 | 0.00 | 0.01 | 0.01 | 41 | 1006.6 |
| 20260503181559 | 69 | 331 | 6.1 | 7.0 | 0.00 | 0.01 | 0.01 | 40 | 1006.7 |
| 20260503181055 | 71 | 331 | 3.5 | 7.0 | 0.00 | 0.01 | 0.01 | 36 | 1006.7 |
| 20260503180552 | 70 | 331 | 0.9 | 1.7 | 0.00 | 0.01 | 0.01 | 40 | 1006.7 |
| 20260503180050 | 68 | 331 | 3.5 | 5.2 | 0.00 | 0.01 | 0.01 | 44 | 1007.0 |
| 20260503175547 | 68 | 331 | 0.0 | 0.0 | 0.00 | 0.01 | 0.01 | 43 | 1006.8 |
| 20260503175044 | 68 | 331 | 4.3 | 4.3 | 0.00 | 0.01 | 0.01 | 41 | 1007.1 |
| 20260503174541 | 70 | 331 | 0.9 | 1.7 | 0.00 | 0.01 | 0.01 | 44 | 1007.1 |
| 20260503174037 | 68 | 331 | 0.9 | 0.9 | 0.00 | 0.01 | 0.01 | 42 | 1007.1 |
| 20260503173532 | 69 | 332 | 0.0 | 0.0 | 0.00 | 0.01 | 0.01 | 44 | 1007.0 |
| 20260503173029 | 66 | 331 | 0.9 | 1.7 | 0.00 | 0.01 | 0.01 | 48 | 1007.1 |
| 20260503172527 | 66 | 331 | 4.3 | 6.1 | 0.00 | 0.01 | 0.01 | 44 | 1007.2 |
| 20260503172024 | 68 | 331 | 2.6 | 4.3 | 0.00 | 0.01 | 0.01 | 45 | 1006.8 |
| 20260503171520 | 69 | 331 | 2.6 | 4.3 | 0.00 | 0.01 | 0.01 | 44 | 1007.2 |
| 20260503171018 | 67 | 331 | 0.9 | 1.7 | 0.00 | 0.01 | 0.01 | 50 | 1007.4 |
| 20260503170514 | 68 | 331 | 2.6 | 2.6 | 0.00 | 0.01 | 0.01 | 47 | 1007.5 |
| 20260503150906 | 64 | 330 | 0.0 | 0.0 | 0.00 | 0.01 | 0.01 | 51 | 1008.5 |
| 20260503150403 | 62 | 331 | 0.9 | 0.9 | 0.00 | 0.01 | 0.01 | 52 | 1008.4 |
| 20260503131256 | 56 | 330 | 2.6 | 2.6 | 0.00 | 0.01 | 0.01 | 68 | 1007.7 |
| 20260503130753 | 56 | 330 | 0.9 | 0.9 | 0.00 | 0.01 | 0.01 | 68 | 1007.9 |
| 20260503130251 | 55 | 330 | 1.7 | 2.6 | 0.00 | 0.01 | 0.01 | 67 | 1007.9 |
| 20260503120217 | 50 | 330 | 1.7 | 2.6 | 0.00 | 0.01 | 0.01 | 99 | 1007.6 |
| 20260503110644 | 46 | 330 | 0.0 | 0.0 | 0.00 | 0.01 | 0.01 | 99 | 1006.5 |
| 20260503110141 | 46 | 330 | 0.0 | 0.0 | 0.00 | 0.01 | 0.01 | 99 | 1006.6 |
| 20260503100108 | 47 | 330 | 0.0 | 0.9 | 0.00 | 0.01 | 0.01 | 99 | 1005.8 |
| 20260503081458 | 47 | 330 | 0.0 | 0.0 | 0.00 | 0.01 | 0.01 | 99 | 1004.7 |
| 20260503080954 | 47 | 330 | 0.0 | 0.0 | 0.00 | 0.01 | 0.01 | 99 | 1004.7 |
| 20260503080451 | 47 | 330 | 0.0 | 0.0 | 0.00 | 0.01 | 0.01 | 99 | 1004.6 |
| 20260503072927 | 47 | 330 | 0.0 | 0.0 | 0.00 | 0.01 | 0.01 | 99 | 1004.5 |
| 20260503072425 | 47 | 330 | 0.0 | 0.0 | 0.00 | 0.01 | 0.01 | 99 | 1004.4 |
| 20260503071922 | 48 | 330 | 0.0 | 0.0 | 0.00 | 0.01 | 0.01 | 99 | 1004.4 |
| 20260503071419 | 48 | 330 | 0.0 | 0.0 | 0.00 | 0.01 | 0.01 | 99 | 1004.3 |
| 20260503070915 | 48 | 330 | 0.0 | 0.0 | 0.00 | 0.01 | 0.01 | 99 | 1004.2 |
| 20260503070412 | 48 | 330 | 0.0 | 0.0 | 0.00 | 0.01 | 0.01 | 99 | 1004.2 |
| 20260503060338 | 48 | 330 | 0.0 | 0.0 | 0.05 | 0.01 | 0.01 | 99 | 1004.0 |
| 20260503054826 | 49 | 330 | 0.0 | 0.0 | 0.00 | 0.00 | 0.00 | 99 | 1004.1 |
| 20260503054321 | 49 | 330 | 0.0 | 0.0 | 0.00 | 0.00 | 0.00 | 99 | 1004.0 |
| 20260503053820 | 49 | 330 | 0.0 | 0.0 | 0.00 | 0.00 | 0.00 | 99 | 1004.1 |
| 20260503053318 | 50 | 330 | 0.0 | 0.0 | 0.00 | 0.00 | 0.00 | 99 | 1004.0 |
| 20260503052814 | 50 | 330 | 0.0 | 0.0 | 0.00 | 0.00 | 0.00 | 99 | 1004.0 |
| 20260503052311 | 50 | 330 | 0.0 | 0.0 | 0.00 | 0.00 | 0.00 | 99 | 1003.9 |
| 20260503051806 | 50 | 330 | 0.0 | 0.0 | 0.00 | 0.00 | 0.00 | 99 | 1004.1 |
| 20260503051303 | 50 | 330 | 0.0 | 0.0 | 0.00 | 0.00 | 0.00 | 99 | 1003.8 |
| 20260503050800 | 51 | 330 | 0.0 | 0.0 | 0.00 | 0.00 | 0.00 | 99 | 1003.8 |
| 20260503050256 | 51 | 330 | 0.0 | 0.0 | 0.00 | 0.00 | 0.00 | 99 | 1003.9 |
| 20260503045754 | 51 | 330 | 1.7 | 1.7 | 0.00 | 0.00 | 0.00 | 99 | 1003.9 |
| 20260503045252 | 51 | 330 | 1.7 | 1.7 | 0.00 | 0.00 | 0.00 | 99 | 1003.6 |
| 20260503044747 | 51 | 330 | 0.0 | 0.0 | 0.00 | 0.00 | 0.00 | 99 | 1003.4 |
| 20260503044244 | 51 | 330 | 0.0 | 0.0 | 0.00 | 0.00 | 0.00 | 99 | 1003.3 |
| 20260503043737 | 51 | 330 | 0.0 | 0.0 | 0.00 | 0.00 | 0.00 | 99 | 1003.4 |
| 20260503043233 | 51 | 330 | 0.0 | 0.0 | 0.00 | 0.00 | 0.00 | 99 | 1003.3 |
| 20260503042729 | 51 | 330 | 0.0 | 0.0 | 0.00 | 0.00 | 0.00 | 99 | 1003.1 |
| 20260503042226 | 51 | 330 | 0.0 | 0.0 | 0.00 | 0.00 | 0.00 | 99 | 1003.4 |
| 20260503041721 | 51 | 330 | 0.0 | 0.0 | 0.00 | 0.00 | 0.00 | 99 | 1003.0 |
| 20260503041220 | 51 | 330 | 0.0 | 0.0 | 0.00 | 0.00 | 0.00 | 98 | 1003.1 |
| 20260503040717 | 52 | 330 | 0.0 | 0.0 | 0.00 | 0.00 | 0.00 | 99 | 1003.0 |
| 20260503040214 | 52 | 330 | 0.0 | 0.0 | 0.00 | 0.00 | 0.00 | 99 | 1003.2 |
| 20260503035711 | 53 | 330 | 0.0 | 0.0 | 0.00 | 0.52 | 0.52 | 98 | 1003.0 |
| 20260503035208 | 53 | 330 | 0.9 | 0.9 | 0.00 | 0.52 | 0.52 | 98 | 1002.9 |
| 20260503034706 | 53 | 330 | 0.0 | 0.0 | 0.00 | 0.52 | 0.52 | 98 | 1003.2 |
| 20260503034202 | 52 | 330 | 0.0 | 0.0 | 0.00 | 0.52 | 0.52 | 98 | 1003.3 |
| 20260503033700 | 52 | 330 | 0.0 | 0.0 | 0.00 | 0.52 | 0.52 | 98 | 1003.3 |
| 20260503033157 | 52 | 330 | 0.0 | 0.0 | 0.00 | 0.52 | 0.52 | 98 | 1003.4 |
| 20260503032655 | 53 | 330 | 0.0 | 0.0 | 0.00 | 0.52 | 0.52 | 97 | 1003.4 |
| 20260503032154 | 53 | 330 | 0.0 | 0.0 | 0.00 | 0.52 | 0.52 | 97 | 1003.3 |
| 20260503031650 | 53 | 330 | 0.0 | 0.0 | 0.00 | 0.52 | 0.52 | 95 | 1003.4 |
| 20260503031149 | 53 | 330 | 0.0 | 0.0 | 0.00 | 0.52 | 0.52 | 95 | 1003.2 |
| 20260503030644 | 53 | 330 | 0.0 | 0.0 | 0.00 | 0.52 | 0.52 | 94 | 1003.6 |
| 20260503030141 | 53 | 330 | 0.0 | 0.0 | 0.00 | 0.52 | 0.52 | 94 | 1003.7 |
| 20260503025638 | 53 | 330 | 0.0 | 0.0 | 0.00 | 0.52 | 0.52 | 93 | 1003.4 |
| 20260503025136 | 53 | 330 | 0.0 | 0.0 | 0.00 | 0.52 | 0.52 | 92 | 1003.4 |
| 20260503024632 | 53 | 330 | 0.0 | 0.0 | 0.00 | 0.52 | 0.52 | 93 | 1003.4 |
| 20260503024129 | 53 | 330 | 0.0 | 0.0 | 0.00 | 0.52 | 0.52 | 94 | 1003.3 |
| 20260503023627 | 53 | 330 | 0.0 | 0.0 | 0.00 | 0.52 | 0.52 | 95 | 1003.3 |
| 20260503023123 | 53 | 330 | 0.0 | 0.0 | 0.00 | 0.52 | 0.52 | 96 | 1003.2 |
| 20260503022619 | 52 | 330 | 0.0 | 0.0 | 0.00 | 0.52 | 0.52 | 98 | 1003.0 |
| 20260503022114 | 52 | 330 | 0.0 | 0.9 | 0.00 | 0.52 | 0.52 | 98 | 1003.3 |
| 20260503021611 | 52 | 330 | 0.9 | 0.9 | 0.00 | 0.52 | 0.52 | 99 | 1002.8 |
| 20260503021108 | 52 | 330 | 0.0 | 0.0 | 0.00 | 0.52 | 0.52 | 99 | 1002.4 |
| 20260503020605 | 52 | 330 | 0.9 | 0.9 | 0.00 | 0.52 | 0.52 | 99 | 1002.5 |
| 20260503015559 | 52 | 330 | 0.0 | 0.0 | 0.00 | 0.52 | 0.52 | 99 | 1002.2 |
| 20260503015056 | 52 | 330 | 0.0 | 0.0 | 0.00 | 0.52 | 0.52 | 99 | 1001.9 |
| 20260503014551 | 52 | 330 | 0.0 | 0.0 | 0.00 | 0.52 | 0.52 | 98 | 1001.8 |
| 20260503014050 | 52 | 330 | 0.0 | 0.0 | 0.00 | 0.52 | 0.52 | 98 | 1001.9 |
| 20260503013547 | 52 | 330 | 0.0 | 0.0 | 0.00 | 0.52 | 0.52 | 98 | 1001.7 |
| 20260503013044 | 52 | 330 | 0.0 | 0.0 | 0.00 | 0.52 | 0.52 | 98 | 1001.7 |
| 20260503012542 | 51 | 330 | 0.0 | 0.0 | 0.00 | 0.52 | 0.52 | 98 | 1001.7 |
| 20260503012038 | 51 | 330 | 0.0 | 0.0 | 0.00 | 0.52 | 0.52 | 98 | 1001.7 |
| 20260503011534 | 51 | 330 | 0.0 | 0.0 | 0.00 | 0.52 | 0.52 | 98 | 1001.5 |
| 20260503011032 | 51 | 330 | 0.0 | 0.0 | 0.00 | 0.52 | 0.52 | 97 | 1001.1 |
| 20260503010528 | 52 | 330 | 0.0 | 0.0 | 0.00 | 0.52 | 0.52 | 97 | 1001.4 |
| 20260503010026 | 52 | 330 | 0.0 | 0.0 | 0.00 | 0.52 | 0.52 | 97 | 1001.1 |
| 20260503005523 | 52 | 330 | 0.0 | 0.0 | 0.00 | 0.52 | 0.52 | 97 | 1001.0 |
| 20260503005020 | 52 | 330 | 0.0 | 0.0 | 0.00 | 0.52 | 0.52 | 97 | 1001.1 |
| 20260503004510 | 52 | 330 | 0.0 | 0.0 | 0.00 | 0.52 | 0.52 | 96 | 1001.1 |
| 20260503004009 | 52 | 330 | 0.0 | 0.0 | 0.00 | 0.52 | 0.52 | 96 | 1001.1 |
| 20260503003505 | 52 | 330 | 0.0 | 0.0 | 0.00 | 0.52 | 0.52 | 96 | 1001.0 |
| 20260503003003 | 52 | 330 | 0.0 | 0.0 | 0.00 | 0.52 | 0.52 | 96 | 1000.9 |
| 20260503002500 | 52 | 330 | 0.0 | 0.0 | 0.00 | 0.52 | 0.52 | 95 | 1000.7 |
| 20260503001955 | 52 | 330 | 0.0 | 0.0 | 0.00 | 0.52 | 0.52 | 95 | 1000.4 |
| 20260503001452 | 52 | 330 | 0.0 | 0.0 | 0.00 | 0.52 | 0.52 | 94 | 1000.6 |
| 20260503000949 | 52 | 330 | 0.0 | 0.0 | 0.00 | 0.52 | 0.52 | 93 | 1000.6 |
| 20260503000446 | 53 | 330 | 0.0 | 0.0 | 0.00 | 0.52 | 0.52 | 93 | 1000.6 |
| 20260502235944 | 53 | 330 | 0.0 | 0.0 | 0.00 | 0.52 | 0.52 | 91 | 1000.6 |
| 20260502235441 | 54 | 330 | 0.0 | 0.0 | 0.00 | 0.52 | 0.52 | 90 | 1000.3 |
| 20260502234938 | 54 | 330 | 0.0 | 0.0 | 0.00 | 0.52 | 0.52 | 89 | 1000.4 |
| 20260502234429 | 55 | 330 | 0.0 | 0.0 | 0.00 | 0.52 | 0.52 | 87 | 1000.2 |
| 20260502233926 | 56 | 330 | 0.0 | 0.0 | 0.00 | 0.52 | 0.52 | 84 | 1000.1 |
| 20260502233421 | 56 | 330 | 0.0 | 0.0 | 0.00 | 0.52 | 0.52 | 82 | 1000.3 |
| 20260502232918 | 56 | 330 | 0.0 | 0.0 | 0.00 | 0.52 | 0.52 | 80 | 1000.2 |
| 20260502232409 | 57 | 330 | 0.0 | 0.0 | 0.00 | 0.52 | 0.52 | 79 | 1000.1 |
| 20260502231906 | 57 | 330 | 0.0 | 0.0 | 0.00 | 0.52 | 0.52 | 78 | 999.9 |
| 20260502231404 | 57 | 330 | 1.7 | 1.7 | 0.00 | 0.52 | 0.52 | 77 | 999.9 |
| 20260502230901 | 57 | 330 | 0.9 | 0.9 | 0.00 | 0.52 | 0.52 | 77 | 999.8 |
| 20260502230359 | 57 | 330 | 0.0 | 0.9 | 0.00 | 0.52 | 0.52 | 77 | 999.8 |
| 20260502225855 | 58 | 330 | 0.0 | 0.0 | 0.00 | 0.52 | 0.52 | 76 | 999.7 |
| 20260502225347 | 58 | 330 | 0.9 | 1.7 | 0.00 | 0.52 | 0.52 | 76 | 999.7 |
| 20260502224844 | 58 | 331 | 1.7 | 1.7 | 0.00 | 0.52 | 0.52 | 75 | 999.7 |
| 20260502224340 | 59 | 331 | 0.0 | 0.0 | 0.00 | 0.52 | 0.52 | 76 | 999.8 |
| 20260502223837 | 58 | 331 | 0.9 | 0.9 | 0.00 | 0.52 | 0.52 | 75 | 1000.0 |
| 20260502223335 | 59 | 331 | 0.9 | 0.9 | 0.00 | 0.52 | 0.52 | 74 | 1000.0 |
| 20260502222832 | 59 | 331 | 2.6 | 2.6 | 0.00 | 0.52 | 0.52 | 76 | 999.9 |
| 20260502222330 | 58 | 331 | 0.0 | 0.0 | 0.00 | 0.52 | 0.52 | 76 | 1000.1 |
| 20260502221825 | 58 | 331 | 0.9 | 0.9 | 0.00 | 0.52 | 0.52 | 76 | 1000.0 |
| 20260502221322 | 59 | 331 | 0.0 | 0.9 | 0.00 | 0.52 | 0.52 | 75 | 1000.1 |
| 20260502220820 | 59 | 332 | 1.7 | 1.7 | 0.00 | 0.52 | 0.52 | 74 | 1000.0 |
| 20260502220315 | 59 | 332 | 1.7 | 1.7 | 0.00 | 0.52 | 0.52 | 74 | 999.9 |
| 20260502215812 | 59 | 332 | 1.7 | 2.6 | 0.00 | 0.52 | 0.52 | 75 | 1000.1 |
| 20260502215309 | 57 | 331 | 3.5 | 5.2 | 0.00 | 0.52 | 0.52 | 76 | 1000.0 |
| 20260502214806 | 58 | 331 | 5.2 | 6.1 | 0.00 | 0.52 | 0.52 | 75 | 1000.0 |
| 20260502214302 | 57 | 331 | 1.7 | 1.7 | 0.00 | 0.52 | 0.52 | 77 | 1000.1 |
| 20260502213759 | 57 | 331 | 0.9 | 1.7 | 0.00 | 0.52 | 0.52 | 77 | 999.5 |
| 20260502213256 | 57 | 331 | 0.9 | 1.7 | 0.00 | 0.52 | 0.52 | 77 | 999.8 |
| 20260502212755 | 57 | 331 | 1.7 | 1.7 | 0.00 | 0.52 | 0.52 | 77 | 999.6 |
| 20260502212253 | 57 | 331 | 2.6 | 4.3 | 0.00 | 0.52 | 0.52 | 77 | 999.5 |
| 20260502211749 | 58 | 331 | 4.3 | 5.2 | 0.00 | 0.52 | 0.52 | 75 | 999.5 |
| 20260502211246 | 57 | 331 | 0.9 | 2.6 | 0.00 | 0.52 | 0.52 | 76 | 999.4 |
| 20260502210743 | 57 | 331 | 0.9 | 0.9 | 0.00 | 0.52 | 0.52 | 76 | 999.7 |
| 20260502210240 | 57 | 331 | 3.5 | 5.2 | 0.00 | 0.52 | 0.52 | 76 | 999.5 |
| 20260502205737 | 58 | 331 | 2.6 | 2.6 | 0.00 | 0.52 | 0.52 | 74 | 999.6 |
| 20260502205228 | 57 | 331 | 0.0 | 0.9 | 0.00 | 0.52 | 0.52 | 77 | 999.8 |
| 20260502204726 | 57 | 331 | 2.6 | 2.6 | 0.00 | 0.52 | 0.52 | 76 | 999.7 |
| 20260502204223 | 57 | 331 | 2.6 | 2.6 | 0.00 | 0.52 | 0.52 | 76 | 999.8 |
| 20260502203720 | 57 | 331 | 1.7 | 2.6 | 0.00 | 0.52 | 0.52 | 78 | 1000.0 |
| 20260502203212 | 57 | 331 | 4.3 | 5.2 | 0.00 | 0.52 | 0.52 | 75 | 999.9 |
| 20260502202705 | 57 | 331 | 1.7 | 1.7 | 0.00 | 0.52 | 0.52 | 77 | 999.9 |
| 20260502202204 | 56 | 331 | 0.9 | 0.9 | 0.00 | 0.52 | 0.52 | 78 | 999.8 |
| 20260502201701 | 57 | 331 | 1.7 | 2.6 | 0.00 | 0.52 | 0.52 | 79 | 999.9 |
| 20260502201158 | 56 | 331 | 1.7 | 1.7 | 0.00 | 0.52 | 0.52 | 80 | 999.8 |
| 20260502200654 | 56 | 331 | 2.6 | 4.3 | 0.00 | 0.52 | 0.52 | 82 | 999.8 |